Time,TemperatureF,DewpointF,PressureIn,WindDirection,WindDirectionDegrees,WindSpeedMPH,WindSpeedGustMPH,Humidity,HourlyPrecipIn,Conditions,Clouds,dailyrainin,SoftwareType,DateUTC
2013-03-08 00:00:00,33.0,31.2,29.94,NNW,331,4.0,4.0,93,0.00,,,0.00,Wunderground v.1.15,2013-03-08 05:00:00,
2013-03-08 00:03:00,33.1,31.3,29.94,NW,326,3.0,4.0,93,0.00,,,0.00,Wunderground v.1.15,2013-03-08 05:03:00,
2013-03-08 00:09:00,33.1,31.3,29.94,WNW,300,5.0,6.0,93,0.00,,,0.00,Wunderground v.1.15,2013-03-08 05:09:00,
2013-03-08 00:14:00,33.1,31.3,29.94,North,355,3.0,7.0,93,0.00,,,0.00,Wunderground v.1.15,2013-03-08 05:14:00,
2013-03-08 00:19:00,33.1,31.0,29.94,NW,315,4.0,7.0,92,0.00,,,0.00,Wunderground v.1.15,2013-03-08 05:19:00,
2013-03-08 00:24:00,33.1,31.3,29.93,North,360,3.0,9.0,93,0.00,,,0.00,Wunderground v.1.15,2013-03-08 05:24:00,
2013-03-08 00:29:00,33.1,31.3,29.93,NNW,348,1.0,9.0,93,0.00,,,0.00,Wunderground v.1.15,2013-03-08 05:29:00,
2013-03-08 00:34:00,33.1,31.3,29.94,NNW,337,3.0,6.0,93,0.00,,,0.00,Wunderground v.1.15,2013-03-08 05:34:00,
2013-03-08 00:40:00,33.0,31.2,29.94,North,355,4.0,4.0,93,0.00,,,0.00,Wunderground v.1.15,2013-03-08 05:40:00,
2013-03-08 00:45:00,32.9,31.1,29.94,NW,306,3.0,4.0,93,0.00,,,0.00,Wunderground v.1.15,2013-03-08 05:45:00,
2013-03-08 00:50:00,32.8,31.3,29.94,NNE,22,2.0,3.0,94,0.00,,,0.00,Wunderground v.1.15,2013-03-08 05:50:00,
2013-03-08 00:55:00,32.7,31.2,29.94,NW,326,6.0,6.0,94,0.00,,,0.00,Wunderground v.1.15,2013-03-08 05:55:00,
2013-03-08 01:00:00,32.6,31.1,29.93,NNE,23,6.0,6.0,94,0.00,,,0.00,Wunderground v.1.15,2013-03-08 06:00:00,
2013-03-08 01:06:00,32.6,31.1,29.93,NNW,331,4.0,6.0,94,0.00,,,0.00,Wunderground v.1.15,2013-03-08 06:06:00,
2013-03-08 01:11:00,32.5,31.2,29.93,NNW,328,3.0,3.0,95,0.00,,,0.00,Wunderground v.1.15,2013-03-08 06:11:00,
2013-03-08 01:16:00,32.5,31.2,29.93,NW,323,4.0,5.0,95,0.00,,,0.00,Wunderground v.1.15,2013-03-08 06:16:00,
2013-03-08 01:21:00,32.4,31.1,29.93,ENE,76,3.0,6.0,95,0.00,,,0.00,Wunderground v.1.15,2013-03-08 06:21:00,
2013-03-08 01:26:00,32.4,31.1,29.93,North,360,2.0,6.0,95,0.00,,,0.00,Wunderground v.1.15,2013-03-08 06:26:00,
2013-03-08 01:31:00,32.3,31.0,29.93,NNW,338,3.0,3.0,95,0.00,,,0.00,Wunderground v.1.15,2013-03-08 06:31:00,
2013-03-08 01:36:00,32.3,31.0,29.92,NNW,345,0.0,6.0,95,0.00,,,0.00,Wunderground v.1.15,2013-03-08 06:36:00,
2013-03-08 01:41:00,32.3,31.0,29.92,ENE,74,5.0,5.0,95,0.00,,,0.00,Wunderground v.1.15,2013-03-08 06:41:00,
2013-03-08 01:46:00,32.3,31.0,29.91,NW,321,3.0,5.0,95,0.00,,,0.00,Wunderground v.1.15,2013-03-08 06:46:00,
2013-03-08 01:52:00,32.2,30.9,29.91,North,355,1.0,4.0,95,0.00,,,0.00,Wunderground v.1.15,2013-03-08 06:52:00,
2013-03-08 01:58:00,32.2,30.9,29.91,NNW,331,3.0,6.0,95,0.00,,,0.00,Wunderground v.1.15,2013-03-08 06:58:00,
2013-03-08 02:03:00,32.2,30.9,29.91,NNW,336,1.0,10.0,95,0.00,,,0.00,Wunderground v.1.15,2013-03-08 07:03:00,
2013-03-08 02:08:00,32.2,30.9,29.91,NNW,327,6.0,10.0,95,0.00,,,0.00,Wunderground v.1.15,2013-03-08 07:08:00,
2013-03-08 02:13:00,32.2,30.9,29.91,NNE,23,6.0,6.0,95,0.00,,,0.00,Wunderground v.1.15,2013-03-08 07:13:00,
2013-03-08 02:18:00,32.2,30.9,29.90,NNW,347,1.0,6.0,95,0.00,,,0.00,Wunderground v.1.15,2013-03-08 07:18:00,
2013-03-08 02:23:00,32.3,31.0,29.91,North,5,2.0,5.0,95,0.00,,,0.00,Wunderground v.1.15,2013-03-08 07:23:00,
2013-03-08 02:28:00,32.3,31.0,29.90,NW,321,0.0,5.0,95,0.00,,,0.00,Wunderground v.1.15,2013-03-08 07:28:00,
2013-03-08 02:33:00,32.2,30.9,29.90,NNE,26,4.0,7.0,95,0.00,,,0.00,Wunderground v.1.15,2013-03-08 07:33:00,
2013-03-08 02:38:00,32.2,30.9,29.90,NNW,348,2.0,7.0,95,0.00,,,0.00,Wunderground v.1.15,2013-03-08 07:38:00,
2013-03-08 02:43:00,32.2,30.9,29.91,NNE,25,2.0,6.0,95,0.00,,,0.00,Wunderground v.1.15,2013-03-08 07:43:00,
2013-03-08 02:48:00,32.2,30.9,29.91,NNW,329,4.0,8.0,95,0.00,,,0.00,Wunderground v.1.15,2013-03-08 07:48:00,
2013-03-08 02:53:00,32.2,30.9,29.91,WNW,293,3.0,4.0,95,0.00,,,0.00,Wunderground v.1.15,2013-03-08 07:53:00,
2013-03-08 02:58:00,32.3,31.0,29.91,North,5,3.0,8.0,95,0.00,,,0.00,Wunderground v.1.15,2013-03-08 07:58:00,
2013-03-08 03:03:00,32.3,31.0,29.91,NNW,340,0.0,6.0,95,0.00,,,0.00,Wunderground v.1.15,2013-03-08 08:03:00,
2013-03-08 03:08:00,32.3,31.0,29.91,North,355,5.0,6.0,95,0.00,,,0.00,Wunderground v.1.15,2013-03-08 08:08:00,
2013-03-08 03:13:00,32.3,31.0,29.91,NNW,333,4.0,5.0,95,0.00,,,0.00,Wunderground v.1.15,2013-03-08 08:13:00,
2013-03-08 03:18:00,32.3,31.0,29.90,SW,236,2.0,5.0,95,0.00,,,0.00,Wunderground v.1.15,2013-03-08 08:18:00,
2013-03-08 03:23:00,32.3,31.0,29.90,North,5,0.0,2.0,95,0.00,,,0.00,Wunderground v.1.15,2013-03-08 08:23:00,
2013-03-08 03:28:00,32.3,31.0,29.90,NNW,346,2.0,6.0,95,0.00,,,0.00,Wunderground v.1.15,2013-03-08 08:28:00,
2013-03-08 03:33:00,32.3,31.0,29.90,North,355,3.0,8.0,95,0.00,,,0.00,Wunderground v.1.15,2013-03-08 08:33:00,
2013-03-08 03:38:00,32.3,31.0,29.90,NNW,344,2.0,8.0,95,0.00,,,0.00,Wunderground v.1.15,2013-03-08 08:38:00,
2013-03-08 03:43:00,32.3,31.0,29.90,NNE,17,1.0,5.0,95,0.00,,,0.00,Wunderground v.1.15,2013-03-08 08:43:00,
2013-03-08 03:48:00,32.3,31.0,29.90,North,11,1.0,5.0,95,0.00,,,0.00,Wunderground v.1.15,2013-03-08 08:48:00,
2013-03-08 03:53:00,32.3,31.0,29.91,NW,325,2.0,7.0,95,0.00,,,0.00,Wunderground v.1.15,2013-03-08 08:53:00,
2013-03-08 03:58:00,32.4,31.1,29.91,NE,38,2.0,7.0,95,0.00,,,0.00,Wunderground v.1.15,2013-03-08 08:58:00,
2013-03-08 04:03:00,32.4,31.1,29.91,North,5,0.0,5.0,95,0.00,,,0.00,Wunderground v.1.15,2013-03-08 09:03:00,
2013-03-08 04:08:00,32.4,31.1,29.91,NNW,343,1.0,6.0,95,0.00,,,0.00,Wunderground v.1.15,2013-03-08 09:08:00,
2013-03-08 04:13:00,32.4,31.1,29.91,NW,326,6.0,6.0,95,0.00,,,0.00,Wunderground v.1.15,2013-03-08 09:13:00,
2013-03-08 04:18:00,32.4,31.1,29.91,NNE,17,1.0,8.0,95,0.00,,,0.00,Wunderground v.1.15,2013-03-08 09:18:00,
2013-03-08 04:24:00,32.4,31.1,29.90,NNW,328,2.0,3.0,95,0.00,,,0.00,Wunderground v.1.15,2013-03-08 09:24:00,
2013-03-08 04:29:00,32.4,31.1,29.90,NW,322,3.0,4.0,95,0.00,,,0.00,Wunderground v.1.15,2013-03-08 09:29:00,
2013-03-08 04:34:00,32.4,31.1,29.90,NW,325,1.0,6.0,95,0.00,,,0.00,Wunderground v.1.15,2013-03-08 09:34:00,
2013-03-08 04:39:00,32.4,31.1,29.90,NNW,329,0.0,6.0,95,0.00,,,0.00,Wunderground v.1.15,2013-03-08 09:39:00,
2013-03-08 04:44:00,32.4,31.4,29.90,NNW,334,4.0,5.0,96,0.00,,,0.00,Wunderground v.1.15,2013-03-08 09:44:00,
2013-03-08 04:49:00,32.4,31.1,29.90,NNE,14,1.0,5.0,95,0.00,,,0.00,Wunderground v.1.15,2013-03-08 09:49:00,
2013-03-08 04:54:00,32.4,31.4,29.90,North,9,2.0,8.0,96,0.00,,,0.00,Wunderground v.1.15,2013-03-08 09:54:00,
2013-03-08 04:59:00,32.4,31.4,29.91,NNW,346,1.0,8.0,96,0.00,,,0.00,Wunderground v.1.15,2013-03-08 09:59:00,
2013-03-08 05:04:00,32.4,31.4,29.91,North,355,0.0,3.0,96,0.00,,,0.00,Wunderground v.1.15,2013-03-08 10:04:00,
2013-03-08 05:09:00,32.4,31.4,29.91,NW,321,2.0,3.0,96,0.00,,,0.00,Wunderground v.1.15,2013-03-08 10:09:00,
2013-03-08 05:14:00,32.4,31.4,29.91,NNW,346,0.0,3.0,96,0.00,,,0.00,Wunderground v.1.15,2013-03-08 10:14:00,
2013-03-08 05:19:00,32.4,31.4,29.91,NNE,28,1.0,3.0,96,0.00,,,0.00,Wunderground v.1.15,2013-03-08 10:19:00,
2013-03-08 05:24:00,32.4,31.4,29.91,North,360,0.0,4.0,96,0.00,,,0.00,Wunderground v.1.15,2013-03-08 10:24:00,
2013-03-08 05:29:00,32.5,31.5,29.90,North,355,0.0,4.0,96,0.00,,,0.00,Wunderground v.1.15,2013-03-08 10:29:00,
2013-03-08 05:34:00,32.5,31.5,29.91,North,355,0.0,1.0,96,0.00,,,0.00,Wunderground v.1.15,2013-03-08 10:34:00,
2013-03-08 05:39:00,32.4,31.4,29.91,North,355,0.0,4.0,96,0.00,,,0.00,Wunderground v.1.15,2013-03-08 10:39:00,
2013-03-08 05:44:00,32.4,31.4,29.90,North,355,0.0,3.0,96,0.00,,,0.00,Wunderground v.1.15,2013-03-08 10:44:00,
2013-03-08 05:49:00,32.4,31.4,29.90,NNW,331,3.0,4.0,96,0.00,,,0.00,Wunderground v.1.15,2013-03-08 10:49:00,
2013-03-08 05:54:00,32.4,31.4,29.90,NNW,331,0.0,3.0,96,0.00,,,0.00,Wunderground v.1.15,2013-03-08 10:54:00,
2013-03-08 05:59:00,32.4,31.4,29.91,NW,322,1.0,3.0,96,0.00,,,0.00,Wunderground v.1.15,2013-03-08 10:59:00,
2013-03-08 06:04:00,32.4,31.4,29.91,North,9,2.0,3.0,96,0.00,,,0.00,Wunderground v.1.15,2013-03-08 11:04:00,
2013-03-08 06:09:00,32.3,31.3,29.91,North,9,1.0,5.0,96,0.00,,,0.00,Wunderground v.1.15,2013-03-08 11:09:00,
2013-03-08 06:14:00,32.3,31.3,29.91,NE,47,0.0,2.0,96,0.00,,,0.00,Wunderground v.1.15,2013-03-08 11:14:00,
2013-03-08 06:19:00,32.3,31.3,29.91,North,355,2.0,4.0,96,0.00,,,0.00,Wunderground v.1.15,2013-03-08 11:19:00,
2013-03-08 06:24:00,32.3,31.3,29.91,NNW,334,0.0,2.0,96,0.00,,,0.00,Wunderground v.1.15,2013-03-08 11:24:00,
2013-03-08 06:29:00,32.3,31.3,29.91,NNW,346,0.0,5.0,96,0.00,,,0.00,Wunderground v.1.15,2013-03-08 11:29:00,
2013-03-08 06:34:00,32.3,31.3,29.91,NW,312,0.0,3.0,96,0.00,,,0.00,Wunderground v.1.15,2013-03-08 11:34:00,
2013-03-08 06:39:00,32.3,31.3,29.91,NNW,346,0.0,3.0,96,0.00,,,0.00,Wunderground v.1.15,2013-03-08 11:39:00,
2013-03-08 06:44:00,32.3,31.3,29.91,North,5,0.0,3.0,96,0.00,,,0.00,Wunderground v.1.15,2013-03-08 11:44:00,
2013-03-08 06:49:00,32.3,31.3,29.91,North,349,0.0,3.0,96,0.00,,,0.00,Wunderground v.1.15,2013-03-08 11:49:00,
2013-03-08 06:55:00,32.3,31.3,29.91,NNW,347,1.0,2.0,96,0.00,,,0.00,Wunderground v.1.15,2013-03-08 11:55:00,
2013-03-08 07:00:00,32.3,31.3,29.91,North,5,0.0,2.0,96,0.00,,,0.00,Wunderground v.1.15,2013-03-08 12:00:00,
2013-03-08 07:05:00,32.4,31.4,29.91,North,350,0.0,4.0,96,0.00,,,0.00,Wunderground v.1.15,2013-03-08 12:05:00,
2013-03-08 07:10:00,32.4,31.4,29.91,NNW,334,2.0,2.0,96,0.00,,,0.00,Wunderground v.1.15,2013-03-08 12:10:00,
2013-03-08 07:15:00,32.4,31.4,29.91,North,5,3.0,4.0,96,0.00,,,0.00,Wunderground v.1.15,2013-03-08 12:15:00,
2013-03-08 07:20:00,32.4,31.4,29.91,NNW,328,0.0,1.0,96,0.00,,,0.00,Wunderground v.1.15,2013-03-08 12:20:00,
2013-03-08 07:25:00,32.5,31.5,29.92,NW,319,0.0,2.0,96,0.00,,,0.00,Wunderground v.1.15,2013-03-08 12:25:00,
2013-03-08 07:30:00,32.5,31.5,29.91,North,5,0.0,0.0,96,0.00,,,0.00,Wunderground v.1.15,2013-03-08 12:30:00,
2013-03-08 07:35:00,32.5,31.5,29.91,NNW,340,0.0,2.0,96,0.00,,,0.00,Wunderground v.1.15,2013-03-08 12:35:00,
2013-03-08 07:40:00,32.6,31.6,29.91,NNW,334,0.0,1.0,96,0.00,,,0.00,Wunderground v.1.15,2013-03-08 12:40:00,
2013-03-08 07:45:00,32.6,31.6,29.92,SE,136,1.0,3.0,96,0.00,,,0.00,Wunderground v.1.15,2013-03-08 12:45:00,
2013-03-08 07:50:00,32.6,31.6,29.91,NW,308,0.0,1.0,96,0.00,,,0.00,Wunderground v.1.15,2013-03-08 12:50:00,
2013-03-08 07:55:00,32.6,31.6,29.91,NW,315,2.0,4.0,96,0.00,,,0.00,Wunderground v.1.15,2013-03-08 12:55:00,
2013-03-08 08:00:00,32.7,31.7,29.91,NW,320,1.0,1.0,96,0.00,,,0.00,Wunderground v.1.15,2013-03-08 13:00:00,
2013-03-08 08:05:00,32.8,31.8,29.91,NW,313,0.0,3.0,96,0.00,,,0.00,Wunderground v.1.15,2013-03-08 13:05:00,
2013-03-08 08:10:00,32.9,31.9,29.91,NW,321,0.0,0.0,96,0.00,,,0.00,Wunderground v.1.15,2013-03-08 13:10:00,
2013-03-08 08:15:00,32.9,31.9,29.92,NNW,347,0.0,6.0,96,0.00,,,0.00,Wunderground v.1.15,2013-03-08 13:15:00,
2013-03-08 08:20:00,33.0,32.0,29.92,NNW,340,0.0,0.0,96,0.00,,,0.00,Wunderground v.1.15,2013-03-08 13:20:00,
2013-03-08 08:25:00,33.0,32.0,29.92,NNW,336,0.0,5.0,96,0.00,,,0.00,Wunderground v.1.15,2013-03-08 13:25:00,
2013-03-08 08:30:00,33.0,32.0,29.92,NW,319,0.0,1.0,96,0.00,,,0.00,Wunderground v.1.15,2013-03-08 13:30:00,
2013-03-08 08:35:00,33.0,32.0,29.92,NNE,24,0.0,1.0,96,0.00,,,0.00,Wunderground v.1.15,2013-03-08 13:35:00,
2013-03-08 08:40:00,33.1,32.1,29.92,NW,318,0.0,0.0,96,0.00,,,0.00,Wunderground v.1.15,2013-03-08 13:40:00,
2013-03-08 08:45:00,33.0,32.0,29.92,NNW,346,0.0,5.0,96,0.00,,,0.00,Wunderground v.1.15,2013-03-08 13:45:00,
2013-03-08 08:50:00,33.0,32.0,29.92,NNW,331,0.0,0.0,96,0.00,,,0.00,Wunderground v.1.15,2013-03-08 13:50:00,
2013-03-08 08:55:00,33.1,32.1,29.92,NNW,344,0.0,0.0,96,0.00,,,0.00,Wunderground v.1.15,2013-03-08 13:55:00,
2013-03-08 09:00:00,33.0,32.0,29.92,North,5,0.0,0.0,96,0.00,,,0.00,Wunderground v.1.15,2013-03-08 14:00:00,
2013-03-08 09:05:00,33.1,32.1,29.92,NNE,15,0.0,1.0,96,0.00,,,0.00,Wunderground v.1.15,2013-03-08 14:05:00,
2013-03-08 09:10:00,33.2,32.2,29.92,NNE,24,0.0,0.0,96,0.00,,,0.00,Wunderground v.1.15,2013-03-08 14:10:00,
2013-03-08 09:15:00,33.2,32.2,29.92,North,355,0.0,0.0,96,0.00,,,0.00,Wunderground v.1.15,2013-03-08 14:15:00,
2013-03-08 09:20:00,33.2,32.2,29.92,NE,51,0.0,0.0,96,0.00,,,0.00,Wunderground v.1.15,2013-03-08 14:20:00,
2013-03-08 09:25:00,33.3,32.3,29.92,NNW,338,0.0,0.0,96,0.00,,,0.00,Wunderground v.1.15,2013-03-08 14:25:00,
2013-03-08 09:30:00,33.4,32.4,29.92,North,10,0.0,0.0,96,0.00,,,0.00,Wunderground v.1.15,2013-03-08 14:30:00,
2013-03-08 09:35:00,33.4,32.4,29.92,NNE,25,0.0,0.0,96,0.00,,,0.00,Wunderground v.1.15,2013-03-08 14:35:00,
2013-03-08 09:40:00,33.4,32.1,29.93,North,10,0.0,0.0,95,0.00,,,0.00,Wunderground v.1.15,2013-03-08 14:40:00,
2013-03-08 09:45:00,33.4,32.4,29.92,North,11,0.0,0.0,96,0.00,,,0.00,Wunderground v.1.15,2013-03-08 14:45:00,
2013-03-08 09:50:00,33.5,32.5,29.92,NNE,15,0.0,0.0,96,0.00,,,0.00,Wunderground v.1.15,2013-03-08 14:50:00,
2013-03-08 09:55:00,33.5,32.5,29.92,NNW,329,0.0,0.0,96,0.00,,,0.00,Wunderground v.1.15,2013-03-08 14:55:00,
2013-03-08 10:00:00,33.5,32.5,29.92,NNW,346,0.0,0.0,96,0.00,,,0.00,Wunderground v.1.15,2013-03-08 15:00:00,
2013-03-08 10:05:00,33.5,32.5,29.93,WNW,299,0.0,0.0,96,0.00,,,0.00,Wunderground v.1.15,2013-03-08 15:05:00,
2013-03-08 10:10:00,33.5,32.2,29.93,NNE,20,0.0,0.0,95,0.00,,,0.00,Wunderground v.1.15,2013-03-08 15:10:00,
2013-03-08 10:15:00,33.5,32.5,29.93,North,11,0.0,0.0,96,0.00,,,0.00,Wunderground v.1.15,2013-03-08 15:15:00,
2013-03-08 10:20:00,33.6,32.6,29.93,NW,320,0.0,0.0,96,0.00,,,0.00,Wunderground v.1.15,2013-03-08 15:20:00,
2013-03-08 10:26:00,33.4,32.4,29.92,NNW,344,0.0,0.0,96,0.00,,,0.00,Wunderground v.1.15,2013-03-08 15:26:00,
2013-03-08 10:31:00,33.3,32.0,29.93,NNW,328,0.0,0.0,95,0.00,,,0.00,Wunderground v.1.15,2013-03-08 15:31:00,
2013-03-08 10:36:00,33.2,32.2,29.93,North,355,0.0,0.0,96,0.00,,,0.00,Wunderground v.1.15,2013-03-08 15:36:00,
2013-03-08 10:41:00,33.2,32.2,29.93,NE,54,0.0,0.0,96,0.00,,,0.00,Wunderground v.1.15,2013-03-08 15:41:00,
2013-03-08 10:46:00,33.1,32.1,29.93,North,355,0.0,0.0,96,0.00,,,0.00,Wunderground v.1.15,2013-03-08 15:46:00,
2013-03-08 10:51:00,33.1,32.1,29.93,NNE,22,0.0,0.0,96,0.00,,,0.00,Wunderground v.1.15,2013-03-08 15:51:00,
2013-03-08 10:56:00,33.1,32.1,29.93,NNE,22,0.0,0.0,96,0.00,,,0.00,Wunderground v.1.15,2013-03-08 15:56:00,
2013-03-08 11:01:00,33.1,32.1,29.93,NNE,22,0.0,0.0,96,0.00,,,0.00,Wunderground v.1.15,2013-03-08 16:01:00,
2013-03-08 11:06:00,33.1,32.1,29.94,North,11,0.0,0.0,96,0.00,,,0.00,Wunderground v.1.15,2013-03-08 16:06:00,
2013-03-08 11:11:00,33.1,32.1,29.94,North,11,0.0,0.0,96,0.00,,,0.00,Wunderground v.1.15,2013-03-08 16:11:00,
2013-03-08 11:16:00,33.1,32.1,29.94,North,11,0.0,0.0,96,0.00,,,0.00,Wunderground v.1.15,2013-03-08 16:16:00,
2013-03-08 11:21:00,33.1,32.1,29.94,NE,46,0.0,0.0,96,0.00,,,0.00,Wunderground v.1.15,2013-03-08 16:21:00,
2013-03-08 11:26:00,33.0,32.0,29.94,NNE,30,0.0,0.0,96,0.00,,,0.00,Wunderground v.1.15,2013-03-08 16:26:00,
2013-03-08 11:31:00,33.0,32.0,29.94,NNE,27,0.0,0.0,96,0.00,,,0.00,Wunderground v.1.15,2013-03-08 16:31:00,
2013-03-08 11:36:00,33.0,32.0,29.94,NNE,30,0.0,0.0,96,0.00,,,0.00,Wunderground v.1.15,2013-03-08 16:36:00,
2013-03-08 11:41:00,33.0,32.0,29.94,NNE,24,0.0,0.0,96,0.00,,,0.00,Wunderground v.1.15,2013-03-08 16:41:00,
2013-03-08 11:46:00,33.0,32.0,29.94,NE,45,0.0,0.0,96,0.00,,,0.00,Wunderground v.1.15,2013-03-08 16:46:00,
2013-03-08 11:51:00,33.0,32.0,29.94,North,9,0.0,0.0,96,0.00,,,0.00,Wunderground v.1.15,2013-03-08 16:51:00,
2013-03-08 11:56:00,33.1,32.1,29.94,North,355,0.0,0.0,96,0.00,,,0.00,Wunderground v.1.15,2013-03-08 16:56:00,
2013-03-08 12:01:00,33.2,32.2,29.94,North,5,0.0,0.0,96,0.00,,,0.00,Wunderground v.1.15,2013-03-08 17:01:00,
2013-03-08 12:06:00,33.2,32.2,29.94,North,355,0.0,0.0,96,0.00,,,0.00,Wunderground v.1.15,2013-03-08 17:06:00,
2013-03-08 12:11:00,33.2,32.2,29.95,NW,308,0.0,0.0,96,0.00,,,0.00,Wunderground v.1.15,2013-03-08 17:11:00,
2013-03-08 12:16:00,33.2,32.2,29.95,NNE,27,0.0,0.0,96,0.00,,,0.00,Wunderground v.1.15,2013-03-08 17:16:00,
2013-03-08 12:21:00,33.2,32.2,29.95,North,360,0.0,0.0,96,0.00,,,0.00,Wunderground v.1.15,2013-03-08 17:21:00,
2013-03-08 12:26:00,33.2,32.2,29.94,North,360,0.0,0.0,96,0.00,,,0.00,Wunderground v.1.15,2013-03-08 17:26:00,
2013-03-08 12:31:00,33.1,32.1,29.94,North,360,0.0,0.0,96,0.00,,,0.00,Wunderground v.1.15,2013-03-08 17:31:00,
2013-03-08 12:36:00,33.1,32.1,29.94,North,360,0.0,0.0,96,0.00,,,0.00,Wunderground v.1.15,2013-03-08 17:36:00,
2013-03-08 12:41:00,33.1,32.1,29.94,North,360,0.0,0.0,96,0.00,,,0.00,Wunderground v.1.15,2013-03-08 17:41:00,
2013-03-08 12:46:00,33.1,32.1,29.94,North,360,0.0,0.0,96,0.00,,,0.00,Wunderground v.1.15,2013-03-08 17:46:00,
2013-03-08 12:52:00,33.1,32.1,29.94,North,360,0.0,0.0,96,0.00,,,0.00,Wunderground v.1.15,2013-03-08 17:52:00,
2013-03-08 12:57:00,33.1,32.1,29.94,North,360,0.0,0.0,96,0.00,,,0.00,Wunderground v.1.15,2013-03-08 17:57:00,
2013-03-08 13:02:00,33.2,32.2,29.94,North,360,0.0,0.0,96,0.00,,,0.00,Wunderground v.1.15,2013-03-08 18:02:00,
2013-03-08 13:07:00,33.1,32.1,29.94,North,360,0.0,0.0,96,0.00,,,0.00,Wunderground v.1.15,2013-03-08 18:07:00,
2013-03-08 13:12:00,33.2,32.2,29.94,North,5,0.0,0.0,96,0.00,,,0.01,Wunderground v.1.15,2013-03-08 18:12:00,
2013-03-08 13:17:00,33.3,32.3,29.94,North,360,0.0,0.0,96,0.00,,,0.01,Wunderground v.1.15,2013-03-08 18:17:00,
2013-03-08 13:22:00,33.4,32.4,29.95,North,5,0.0,0.0,96,0.00,,,0.01,Wunderground v.1.15,2013-03-08 18:22:00,
2013-03-08 13:27:00,33.5,32.5,29.95,North,5,0.0,0.0,96,0.00,,,0.01,Wunderground v.1.15,2013-03-08 18:27:00,
2013-03-08 13:32:00,33.5,32.5,29.95,North,5,0.0,0.0,96,0.00,,,0.01,Wunderground v.1.15,2013-03-08 18:32:00,
2013-03-08 13:37:00,33.7,32.9,29.95,North,5,0.0,0.0,97,0.00,,,0.01,Wunderground v.1.15,2013-03-08 18:37:00,
2013-03-08 13:42:00,33.7,32.9,29.95,North,5,0.0,0.0,97,0.00,,,0.01,Wunderground v.1.15,2013-03-08 18:42:00,
2013-03-08 13:47:00,33.8,32.8,29.95,North,9,0.0,0.0,96,0.00,,,0.01,Wunderground v.1.15,2013-03-08 18:47:00,
2013-03-08 13:52:00,33.9,32.9,29.95,North,11,0.0,0.0,96,0.00,,,0.01,Wunderground v.1.15,2013-03-08 18:52:00,
2013-03-08 13:57:00,34.0,33.0,29.95,NNE,13,0.0,0.0,96,0.00,,,0.01,Wunderground v.1.15,2013-03-08 18:57:00,
2013-03-08 14:02:00,34.1,33.1,29.95,NNE,13,0.0,0.0,96,0.00,,,0.01,Wunderground v.1.15,2013-03-08 19:02:00,
2013-03-08 14:07:00,34.2,33.2,29.95,NNE,15,0.0,0.0,96,0.00,,,0.01,Wunderground v.1.15,2013-03-08 19:07:00,
2013-03-08 14:12:00,34.2,33.2,29.95,NNE,22,0.0,0.0,96,0.00,,,0.01,Wunderground v.1.15,2013-03-08 19:12:00,
2013-03-08 14:17:00,34.3,33.0,29.95,NW,313,1.0,6.0,95,0.00,,,0.01,Wunderground v.1.15,2013-03-08 19:17:00,
2013-03-08 14:22:00,34.3,33.0,29.95,NNE,28,4.0,11.0,95,0.00,,,0.01,Wunderground v.1.15,2013-03-08 19:22:00,
2013-03-08 14:27:00,34.3,33.0,29.96,NNW,336,4.0,14.0,95,0.00,,,0.01,Wunderground v.1.15,2013-03-08 19:27:00,
2013-03-08 14:32:00,34.4,33.1,29.96,North,5,7.0,12.0,95,0.00,,,0.01,Wunderground v.1.15,2013-03-08 19:32:00,
2013-03-08 14:37:00,34.5,33.2,29.96,NNW,338,4.0,12.0,95,0.00,,,0.01,Wunderground v.1.15,2013-03-08 19:37:00,
2013-03-08 14:42:00,34.6,33.3,29.96,NNW,340,7.0,10.0,95,0.00,,,0.01,Wunderground v.1.15,2013-03-08 19:42:00,
2013-03-08 14:47:00,34.6,33.3,29.96,NE,56,2.0,10.0,95,0.00,,,0.01,Wunderground v.1.15,2013-03-08 19:47:00,
2013-03-08 14:52:00,34.7,33.2,29.96,East,92,7.0,20.0,94,0.00,,,0.01,Wunderground v.1.15,2013-03-08 19:52:00,
2013-03-08 14:57:00,34.8,33.2,29.96,North,11,3.0,20.0,94,0.00,,,0.01,Wunderground v.1.15,2013-03-08 19:57:00,
2013-03-08 15:02:00,34.9,33.3,29.96,ENE,66,8.0,15.0,94,0.00,,,0.01,Wunderground v.1.15,2013-03-08 20:02:00,
2013-03-08 15:07:00,35.0,33.4,29.97,ENE,64,7.0,15.0,94,0.00,,,0.01,Wunderground v.1.15,2013-03-08 20:07:00,
2013-03-08 15:12:00,35.1,33.5,29.97,NNW,329,8.0,8.0,94,0.00,,,0.01,Wunderground v.1.15,2013-03-08 20:12:00,
2013-03-08 15:17:00,35.2,33.6,29.97,NNE,12,9.0,13.0,94,0.00,,,0.01,Wunderground v.1.15,2013-03-08 20:17:00,
2013-03-08 15:22:00,35.2,33.4,29.97,NE,47,9.0,9.0,93,0.00,,,0.01,Wunderground v.1.15,2013-03-08 20:22:00,
2013-03-08 15:27:00,35.3,33.5,29.97,NNE,14,4.0,10.0,93,0.00,,,0.02,Wunderground v.1.15,2013-03-08 20:27:00,
2013-03-08 15:33:00,35.3,33.5,29.97,North,355,3.0,10.0,93,0.00,,,0.02,Wunderground v.1.15,2013-03-08 20:33:00,
2013-03-08 15:38:00,35.5,33.7,29.97,North,360,4.0,10.0,93,0.00,,,0.02,Wunderground v.1.15,2013-03-08 20:38:00,
2013-03-08 15:43:00,35.6,33.8,29.97,NNE,16,6.0,10.0,93,0.00,,,0.02,Wunderground v.1.15,2013-03-08 20:43:00,
2013-03-08 15:48:00,35.7,33.9,29.98,NNE,12,10.0,14.0,93,0.00,,,0.02,Wunderground v.1.15,2013-03-08 20:48:00,
2013-03-08 15:53:00,35.8,33.7,29.98,North,5,8.0,11.0,92,0.00,,,0.02,Wunderground v.1.15,2013-03-08 20:53:00,
2013-03-08 15:58:00,36.0,33.9,29.98,North,351,6.0,18.0,92,0.00,,,0.02,Wunderground v.1.15,2013-03-08 20:58:00,
2013-03-08 16:03:00,36.0,33.9,29.98,NW,310,5.0,14.0,92,0.00,,,0.02,Wunderground v.1.15,2013-03-08 21:03:00,
2013-03-08 16:08:00,36.1,33.7,29.98,North,355,1.0,14.0,91,0.00,,,0.02,Wunderground v.1.15,2013-03-08 21:08:00,
2013-03-08 16:13:00,36.2,33.8,29.99,NNE,30,5.0,16.0,91,0.00,,,0.02,Wunderground v.1.15,2013-03-08 21:13:00,
2013-03-08 16:18:00,36.3,33.9,29.99,NE,43,4.0,17.0,91,0.00,,,0.02,Wunderground v.1.15,2013-03-08 21:18:00,
2013-03-08 16:23:00,36.3,33.9,29.99,North,355,11.0,12.0,91,0.00,,,0.02,Wunderground v.1.15,2013-03-08 21:23:00,
2013-03-08 16:28:00,36.3,33.6,29.99,NW,310,2.0,13.0,90,0.00,,,0.02,Wunderground v.1.15,2013-03-08 21:28:00,
2013-03-08 16:33:00,36.3,33.9,29.99,NNW,330,5.0,10.0,91,0.00,,,0.02,Wunderground v.1.15,2013-03-08 21:33:00,
2013-03-08 16:38:00,36.2,33.8,29.99,NNE,13,2.0,10.0,91,0.00,,,0.02,Wunderground v.1.15,2013-03-08 21:38:00,
2013-03-08 16:43:00,36.3,33.6,29.99,NNW,336,4.0,10.0,90,0.00,,,0.02,Wunderground v.1.15,2013-03-08 21:43:00,
2013-03-08 16:48:00,36.4,33.7,30.00,NNE,23,4.0,12.0,90,0.00,,,0.02,Wunderground v.1.15,2013-03-08 21:48:00,
2013-03-08 16:53:00,36.4,33.7,30.00,NW,308,4.0,11.0,90,0.00,,,0.02,Wunderground v.1.15,2013-03-08 21:53:00,
2013-03-08 16:58:00,36.4,33.7,30.00,NNW,340,5.0,14.0,90,0.00,,,0.03,Wunderground v.1.15,2013-03-08 21:58:00,
2013-03-08 17:03:00,36.2,33.8,30.00,North,355,7.0,8.0,91,0.00,,,0.03,Wunderground v.1.15,2013-03-08 22:03:00,
2013-03-08 17:08:00,36.1,33.7,30.00,NNE,21,4.0,10.0,91,0.00,,,0.03,Wunderground v.1.15,2013-03-08 22:08:00,
2013-03-08 17:13:00,36.1,33.7,30.01,NNE,18,13.0,13.0,91,0.00,,,0.03,Wunderground v.1.15,2013-03-08 22:13:00,
2013-03-08 17:18:00,36.1,33.7,30.01,NNE,12,8.0,13.0,91,0.00,,,0.03,Wunderground v.1.15,2013-03-08 22:18:00,
2013-03-08 17:23:00,36.2,33.8,30.01,NE,46,10.0,13.0,91,0.00,,,0.03,Wunderground v.1.15,2013-03-08 22:23:00,
2013-03-08 17:28:00,36.2,33.8,30.01,NNW,340,7.0,13.0,91,0.00,,,0.03,Wunderground v.1.15,2013-03-08 22:28:00,
2013-03-08 17:33:00,36.2,33.8,30.02,NNE,26,14.0,15.0,91,0.00,,,0.03,Wunderground v.1.15,2013-03-08 22:33:00,
2013-03-08 17:38:00,36.2,33.8,30.02,NNW,327,10.0,15.0,91,0.00,,,0.04,Wunderground v.1.15,2013-03-08 22:38:00,
2013-03-08 17:43:00,36.2,33.8,30.02,North,5,5.0,15.0,91,0.00,,,0.04,Wunderground v.1.15,2013-03-08 22:43:00,
2013-03-08 17:48:00,36.2,33.8,30.02,NNW,333,4.0,15.0,91,0.00,,,0.04,Wunderground v.1.15,2013-03-08 22:48:00,
2013-03-08 17:53:00,36.2,33.8,30.03,NE,44,1.0,10.0,91,0.00,,,0.04,Wunderground v.1.15,2013-03-08 22:53:00,
2013-03-08 17:58:00,36.2,33.8,30.03,NNE,25,8.0,14.0,91,0.00,,,0.04,Wunderground v.1.15,2013-03-08 22:58:00,
2013-03-08 18:04:00,36.3,33.6,30.03,NE,38,5.0,12.0,90,0.00,,,0.04,Wunderground v.1.15,2013-03-08 23:04:00,
2013-03-08 18:09:00,36.4,33.7,30.04,North,349,4.0,12.0,90,0.00,,,0.05,Wunderground v.1.15,2013-03-08 23:09:00,
2013-03-08 18:14:00,36.4,33.5,30.04,North,10,7.0,16.0,89,0.00,,,0.05,Wunderground v.1.15,2013-03-08 23:14:00,
2013-03-08 18:19:00,36.6,33.4,30.04,NNW,328,2.0,16.0,88,0.00,,,0.05,Wunderground v.1.15,2013-03-08 23:19:00,
2013-03-08 18:24:00,36.9,33.4,30.05,North,350,4.0,14.0,87,0.00,,,0.05,Wunderground v.1.15,2013-03-08 23:24:00,
2013-03-08 18:29:00,36.9,33.4,30.05,NNW,332,8.0,14.0,87,0.00,,,0.05,Wunderground v.1.15,2013-03-08 23:29:00,
2013-03-08 18:34:00,37.2,33.1,30.05,WNW,302,4.0,12.0,85,0.00,,,0.05,Wunderground v.1.15,2013-03-08 23:34:00,
2013-03-08 18:39:00,37.4,33.0,30.05,North,349,11.0,12.0,84,0.00,,,0.06,Wunderground v.1.15,2013-03-08 23:39:00,
2013-03-08 18:44:00,37.8,33.4,30.05,NW,323,8.0,20.0,84,0.00,,,0.06,Wunderground v.1.15,2013-03-08 23:44:00,
2013-03-08 18:49:00,38.1,33.1,30.05,North,360,5.0,20.0,82,0.00,,,0.06,Wunderground v.1.15,2013-03-08 23:49:00,
2013-03-08 18:54:00,38.2,33.2,30.05,NNE,26,6.0,14.0,82,0.00,,,0.06,Wunderground v.1.15,2013-03-08 23:54:00,
2013-03-08 18:59:00,38.3,33.3,30.04,NE,55,3.0,14.0,82,0.00,,,0.06,Wunderground v.1.15,2013-03-08 23:59:00,
2013-03-08 19:04:00,38.2,33.2,30.05,NE,40,10.0,10.0,82,0.00,,,0.07,Wunderground v.1.15,2013-03-09 00:04:00,
2013-03-08 19:09:00,38.4,33.1,30.05,NNW,341,4.0,13.0,81,0.00,,,0.07,Wunderground v.1.15,2013-03-09 00:09:00,
2013-03-08 19:14:00,38.4,33.4,30.06,NNE,15,7.0,7.0,82,0.00,,,0.07,Wunderground v.1.15,2013-03-09 00:14:00,
2013-03-08 19:19:00,38.3,32.7,30.06,North,5,3.0,11.0,80,0.00,,,0.07,Wunderground v.1.15,2013-03-09 00:19:00,
2013-03-08 19:24:00,38.4,32.8,30.06,NNW,328,7.0,9.0,80,0.00,,,0.08,Wunderground v.1.15,2013-03-09 00:24:00,
2013-03-08 19:29:00,38.4,32.5,30.06,North,11,6.0,9.0,79,0.00,,,0.08,Wunderground v.1.15,2013-03-09 00:29:00,
2013-03-08 19:34:00,38.4,32.8,30.06,North,5,2.0,7.0,80,0.00,,,0.08,Wunderground v.1.15,2013-03-09 00:34:00,
2013-03-08 19:39:00,38.5,32.6,30.06,North,350,3.0,10.0,79,0.04,,,0.09,Wunderground v.1.15,2013-03-09 00:39:00,
2013-03-08 19:44:00,38.5,32.6,30.07,NNW,342,2.0,6.0,79,0.04,,,0.09,Wunderground v.1.15,2013-03-09 00:44:00,
2013-03-08 19:49:00,38.4,32.5,30.07,NNW,336,4.0,6.0,79,0.04,,,0.09,Wunderground v.1.15,2013-03-09 00:49:00,
2013-03-08 19:54:00,38.4,32.5,30.07,North,355,1.0,4.0,79,0.00,,,0.09,Wunderground v.1.15,2013-03-09 00:54:00,
2013-03-08 19:59:00,38.3,32.4,30.07,NNW,331,2.0,4.0,79,0.00,,,0.10,Wunderground v.1.15,2013-03-09 00:59:00,
2013-03-08 20:04:00,38.1,32.5,30.07,NNW,331,1.0,5.0,80,0.00,,,0.10,Wunderground v.1.15,2013-03-09 01:04:00,
2013-03-08 20:09:00,38.0,32.7,30.07,NNW,331,1.0,6.0,81,0.00,,,0.10,Wunderground v.1.15,2013-03-09 01:09:00,
2013-03-08 20:14:00,37.9,32.9,30.07,NW,313,3.0,5.0,82,0.00,,,0.11,Wunderground v.1.15,2013-03-09 01:14:00,
2013-03-08 20:19:00,37.7,32.7,30.07,NNW,329,2.0,5.0,82,0.00,,,0.11,Wunderground v.1.15,2013-03-09 01:19:00,
2013-03-08 20:24:00,37.6,32.6,30.07,NNW,347,3.0,6.0,82,0.00,,,0.11,Wunderground v.1.15,2013-03-09 01:24:00,
2013-03-08 20:29:00,37.7,32.4,30.07,NNW,341,3.0,6.0,81,0.00,,,0.11,Wunderground v.1.15,2013-03-09 01:29:00,
2013-03-08 20:34:00,37.7,32.4,30.07,NW,325,5.0,6.0,81,0.00,,,0.11,Wunderground v.1.15,2013-03-09 01:34:00,
2013-03-08 20:39:00,37.8,32.2,30.08,NE,46,4.0,6.0,80,0.00,,,0.11,Wunderground v.1.15,2013-03-09 01:39:00,
2013-03-08 20:44:00,38.0,32.1,30.08,NNE,30,2.0,6.0,79,0.00,,,0.12,Wunderground v.1.15,2013-03-09 01:44:00,
2013-03-08 20:49:00,38.3,32.0,30.07,NNE,16,3.0,8.0,78,0.00,,,0.12,Wunderground v.1.15,2013-03-09 01:49:00,
2013-03-08 20:54:00,38.5,31.9,30.07,North,9,3.0,9.0,77,0.00,,,0.12,Wunderground v.1.15,2013-03-09 01:54:00,
2013-03-08 20:59:00,38.5,31.9,30.08,NW,325,3.0,9.0,77,0.00,,,0.12,Wunderground v.1.15,2013-03-09 01:59:00,
2013-03-08 21:04:00,38.6,31.7,30.08,WNW,295,4.0,8.0,76,0.00,,,0.12,Wunderground v.1.15,2013-03-09 02:04:00,
2013-03-08 21:09:00,38.7,31.8,30.08,NNE,13,9.0,9.0,76,0.00,,,0.13,Wunderground v.1.15,2013-03-09 02:09:00,
2013-03-08 21:14:00,38.7,31.8,30.08,North,355,4.0,10.0,76,0.00,,,0.13,Wunderground v.1.15,2013-03-09 02:14:00,
2013-03-08 21:19:00,38.8,31.2,30.08,NNE,14,4.0,10.0,74,0.00,,,0.13,Wunderground v.1.15,2013-03-09 02:19:00,
2013-03-08 21:24:00,38.9,31.3,30.08,North,349,2.0,8.0,74,0.00,,,0.13,Wunderground v.1.15,2013-03-09 02:24:00,
2013-03-08 21:29:00,38.9,31.0,30.08,NW,321,5.0,8.0,73,0.00,,,0.13,Wunderground v.1.15,2013-03-09 02:29:00,
2013-03-08 21:34:00,38.9,31.0,30.09,NNE,32,5.0,6.0,73,0.00,,,0.13,Wunderground v.1.15,2013-03-09 02:34:00,
2013-03-08 21:39:00,39.0,30.7,30.08,NNW,338,4.0,7.0,72,0.00,,,0.14,Wunderground v.1.15,2013-03-09 02:39:00,
2013-03-08 21:44:00,38.9,30.6,30.08,NW,319,4.0,11.0,72,0.00,,,0.14,Wunderground v.1.15,2013-03-09 02:44:00,
2013-03-08 21:49:00,38.8,30.9,30.08,NNW,347,3.0,11.0,73,0.00,,,0.14,Wunderground v.1.15,2013-03-09 02:49:00,
2013-03-08 21:54:00,38.9,30.6,30.08,NNW,338,2.0,12.0,72,0.00,,,0.14,Wunderground v.1.15,2013-03-09 02:54:00,
2013-03-08 21:59:00,38.9,30.3,30.08,NNW,335,2.0,12.0,71,0.00,,,0.14,Wunderground v.1.15,2013-03-09 02:59:00,
2013-03-08 22:04:00,38.8,30.5,30.09,North,355,3.0,5.0,72,0.00,,,0.14,Wunderground v.1.15,2013-03-09 03:04:00,
2013-03-08 22:09:00,38.7,30.4,30.09,NW,313,2.0,7.0,72,0.00,,,0.14,Wunderground v.1.15,2013-03-09 03:09:00,
2013-03-08 22:14:00,38.7,30.1,30.09,NNW,333,4.0,7.0,71,0.00,,,0.14,Wunderground v.1.15,2013-03-09 03:14:00,
2013-03-08 22:20:00,38.7,30.1,30.09,NNW,338,1.0,9.0,71,0.00,,,0.14,Wunderground v.1.15,2013-03-09 03:20:00,
2013-03-08 22:25:00,38.6,30.0,30.09,NW,325,5.0,9.0,71,0.00,,,0.15,Wunderground v.1.15,2013-03-09 03:25:00,
2013-03-08 22:30:00,38.6,30.0,30.09,North,5,4.0,4.0,71,0.00,,,0.15,Wunderground v.1.15,2013-03-09 03:30:00,
2013-03-08 22:35:00,38.8,29.5,30.09,NNW,346,3.0,6.0,69,0.00,,,0.15,Wunderground v.1.15,2013-03-09 03:35:00,
2013-03-08 22:40:00,38.9,29.6,30.09,North,10,6.0,6.0,69,0.00,,,0.15,Wunderground v.1.15,2013-03-09 03:40:00,
2013-03-08 22:45:00,38.9,29.6,30.09,NW,305,4.0,6.0,69,0.00,,,0.15,Wunderground v.1.15,2013-03-09 03:45:00,
2013-03-08 22:50:00,38.9,29.2,30.09,North,355,2.0,3.0,68,0.00,,,0.15,Wunderground v.1.15,2013-03-09 03:50:00,
2013-03-08 22:55:00,38.9,29.6,30.09,NNW,338,5.0,6.0,69,0.00,,,0.15,Wunderground v.1.15,2013-03-09 03:55:00,
2013-03-08 23:00:00,38.7,29.4,30.09,NW,313,2.0,3.0,69,0.00,,,0.15,Wunderground v.1.15,2013-03-09 04:00:00,
2013-03-08 23:05:00,38.5,29.6,30.09,NNW,329,1.0,7.0,70,0.00,,,0.15,Wunderground v.1.15,2013-03-09 04:05:00,
2013-03-08 23:10:00,38.4,29.5,30.08,NNW,339,7.0,10.0,70,0.00,,,0.15,Wunderground v.1.15,2013-03-09 04:10:00,
2013-03-08 23:15:00,38.2,29.3,30.08,NW,306,4.0,10.0,70,0.00,,,0.15,Wunderground v.1.15,2013-03-09 04:15:00,
2013-03-08 23:20:00,38.2,29.3,30.09,NNW,339,5.0,5.0,70,0.00,,,0.15,Wunderground v.1.15,2013-03-09 04:20:00,
2013-03-08 23:25:00,38.2,29.3,30.09,NNW,331,6.0,7.0,70,0.00,,,0.16,Wunderground v.1.15,2013-03-09 04:25:00,
2013-03-08 23:30:00,38.2,28.9,30.09,NNW,346,3.0,4.0,69,0.00,,,0.16,Wunderground v.1.15,2013-03-09 04:30:00,
2013-03-08 23:35:00,38.2,28.9,30.09,NNW,331,3.0,7.0,69,0.00,,,0.16,Wunderground v.1.15,2013-03-09 04:35:00,
2013-03-08 23:40:00,38.2,28.9,30.09,NW,322,5.0,6.0,69,0.00,,,0.16,Wunderground v.1.15,2013-03-09 04:40:00,
2013-03-08 23:45:00,38.1,28.8,30.09,NW,308,5.0,8.0,69,0.00,,,0.16,Wunderground v.1.15,2013-03-09 04:45:00,
2013-03-08 23:50:00,38.0,28.7,30.09,NNW,344,4.0,8.0,69,0.00,,,0.16,Wunderground v.1.15,2013-03-09 04:50:00,
2013-03-08 23:55:00,38.0,28.7,30.09,NNE,19,4.0,8.0,69,0.00,,,0.16,Wunderground v.1.15,2013-03-09 04:55:00,